FW1643 Weather Reports


time (UTC)temp
F
wind
direction
speed
knots
gust
knots
rain 1hr
in
rain 24hr
in
rain mn
in
humidity
%
barometer
mb
20260507093023 84 277 0.0 0.0 0.00 0.00 0.00 37 993.0
20260507091525 83 274 0.0 0.0 0.00 0.00 0.00 36 993.1
20260507090018 83 265 0.0 0.0 0.00 0.00 0.00 37 993.0
20260507084520 83 320 0.0 0.0 0.00 0.00 0.00 36 993.1
20260507083014 82 326 0.0 0.0 0.00 0.00 0.00 37 993.0
20260507081512 82 241 0.0 0.0 0.00 0.00 0.00 40 993.1
20260507080011 83 286 0.0 0.0 0.00 0.00 0.00 38 993.0
20260507074508 83 285 0.0 0.0 0.00 0.00 0.00 38 993.0
20260507073003 82 293 0.0 0.0 0.00 0.00 0.00 37 992.9
20260507071600 81 265 0.0 0.0 0.00 0.00 0.00 42 993.0
20260507070105 80 299 0.0 0.0 0.00 0.00 0.00 44 993.1
20260507064559 78 286 0.0 0.0 0.00 0.00 0.00 44 993.2
20260507063100 80 265 0.0 0.0 0.00 0.00 0.00 42 993.0
20260507061556 80 285 0.0 0.0 0.00 0.00 0.00 41 993.1
20260507060055 80 295 0.0 0.0 0.00 0.00 0.00 41 992.8
20260507054551 79 303 0.0 0.0 0.00 0.00 0.00 42 992.9
20260507053048 78 283 0.0 0.0 0.00 0.00 0.00 45 992.9
20260507051546 78 293 0.0 0.0 0.00 0.00 0.00 45 992.8
20260507050042 76 276 0.0 0.0 0.00 0.00 0.00 47 992.8
20260507044553 74 287 0.0 0.0 0.00 0.00 0.00 49 992.7
20260507043034 72 293 0.0 0.0 0.00 0.00 0.00 51 992.6
20260507041531 70 275 0.0 0.0 0.00 0.00 0.00 53 992.5
20260507040033 69 270 0.0 0.0 0.00 0.00 0.00 55 992.5
20260507034525 66 270 0.0 0.0 0.00 0.00 0.00 58 992.2
20260507033027 63 270 0.0 0.0 0.00 0.00 0.00 61 992.1
20260507031515 60 276 0.0 0.0 0.00 0.00 0.00 64 992.0
20260507030012 58 276 0.0 0.0 0.00 0.00 0.00 66 992.0
20260507024513 56 276 0.0 0.0 0.00 0.00 0.00 66 992.0
20260507023011 56 234 0.0 0.0 0.00 0.00 0.00 66 991.8
20260507021510 56 270 0.0 0.0 0.00 0.00 0.00 65 991.9
20260507020010 56 278 0.0 0.0 0.00 0.00 0.00 65 991.8
20260507014510 56 281 0.0 0.0 0.00 0.00 0.00 65 991.8
20260507013008 56 265 0.0 0.0 0.00 0.00 0.00 66 991.9
20260507011518 55 274 0.0 0.0 0.00 0.00 0.00 67 991.8
20260507010005 53 253 0.0 0.0 0.00 0.00 0.00 70 991.8
20260507004503 52 280 0.0 0.0 0.00 0.00 0.00 70 991.6
20260507003001 52 292 0.0 0.0 0.00 0.00 0.00 71 991.7
20260507001608 52 251 0.0 0.0 0.00 0.00 0.00 72 991.7
20260507000057 52 265 0.0 0.0 0.00 0.00 0.00 71 991.7
20260506234604 54 270 0.0 0.0 0.00 0.00 0.00 69 991.3
20260506233055 54 265 0.0 0.0 0.00 0.00 0.00 67 991.4
20260506231553 56 270 0.0 0.0 0.00 0.00 0.00 65 991.4
20260506230045 57 270 0.0 0.0 0.00 0.00 0.00 63 991.4
20260506224543 58 276 0.0 0.0 0.00 0.00 0.00 60 991.3
20260506223041 59 275 0.0 0.0 0.00 0.00 0.00 59 991.2
20260506221539 60 278 0.0 0.0 0.00 0.00 0.00 58 991.1
20260506220038 60 265 0.0 0.0 0.00 0.00 0.00 59 991.1
20260506214535 59 265 0.0 0.0 0.00 0.00 0.00 60 991.1
20260506213035 57 265 0.0 0.0 0.00 0.00 0.00 62 990.9
20260506211527 56 270 0.0 0.0 0.00 0.00 0.00 64 990.9
20260506210031 56 291 0.0 0.0 0.00 0.00 0.00 67 990.9
20260506204525 57 291 0.0 0.0 0.00 0.00 0.00 69 990.7
20260506203033 57 291 0.0 0.0 0.00 0.00 0.00 66 990.8
20260506201522 58 292 0.0 0.0 0.00 0.00 0.00 62 990.5
20260506200022 60 252 0.0 0.0 0.00 0.00 0.00 63 990.3
20260506194522 61 270 0.0 0.0 0.00 0.00 0.00 59 990.3
20260506193021 62 265 0.0 0.0 0.00 0.00 0.00 53 990.2
20260506191522 62 238 0.0 0.0 0.00 0.00 0.00 53 990.3
20260506190021 63 253 0.0 0.0 0.00 0.00 0.00 53 990.2
20260506184520 63 247 0.0 0.0 0.00 0.00 0.00 53 990.1
20260506183019 63 234 0.0 0.0 0.00 0.00 0.00 53 990.2
20260506181519 63 244 0.0 0.0 0.00 0.00 0.00 52 990.1
20260506180025 63 260 0.0 0.0 0.00 0.00 0.00 53 990.0
20260506174520 65 235 0.0 0.0 0.00 0.00 0.00 51 989.8
20260506173020 67 265 0.0 0.0 0.00 0.00 0.00 48 989.8
20260506171517 69 224 0.0 0.0 0.00 0.00 0.00 45 989.7
20260506170017 71 265 0.0 0.0 0.00 0.00 0.00 44 989.7
20260506164517 74 265 0.0 0.0 0.00 0.00 0.00 39 989.4
20260506163023 76 283 0.0 0.0 0.00 0.00 0.00 35 989.3
20260506161516 77 297 0.0 0.0 0.00 0.00 0.00 34 989.3
20260506160017 78 295 0.0 0.0 0.00 0.00 0.00 33 989.4
20260506154514 79 297 0.0 0.0 0.00 0.00 0.00 32 989.5
20260506153013 79 324 0.0 0.0 0.00 0.00 0.00 32 989.5
20260506151513 80 296 0.0 0.0 0.00 0.00 0.00 31 989.4
20260506150013 81 319 0.0 0.0 0.00 0.00 0.00 29 989.4
20260506144512 81 327 0.0 0.0 0.00 0.00 0.00 32 989.5
20260506143022 81 319 0.0 0.0 0.00 0.00 0.00 29 989.4
20260506141511 81 277 0.0 0.0 0.00 0.00 0.00 31 989.5
20260506140010 82 303 0.0 0.0 0.00 0.00 0.00 28 989.5
20260506134509 82 328 0.0 0.0 0.00 0.00 0.00 30 989.5
20260506133007 82 287 0.0 0.0 0.00 0.00 0.00 30 989.5
20260506131507 82 321 0.0 0.0 0.00 0.00 0.00 31 989.4
20260506130005 82 302 0.0 0.0 0.00 0.00 0.00 30 989.4
20260506124504 82 343 0.0 0.0 0.00 0.00 0.00 30 989.4
20260506123001 82 298 0.0 0.0 0.00 0.00 0.00 32 989.6
20260506121559 82 274 0.0 0.0 0.00 0.00 0.00 33 989.7
20260506120106 82 353 0.0 0.0 0.00 0.00 0.00 32 989.8
20260506114555 82 279 0.0 0.0 0.00 0.00 0.00 32 989.9
20260506113057 82 250 0.0 0.0 0.00 0.00 0.00 32 989.9
20260506111552 82 235 0.0 0.0 0.00 0.00 0.00 33 990.1
20260506110056 82 270 0.0 0.0 0.00 0.00 0.00 33 990.2
20260506104553 82 260 0.0 0.0 0.00 0.00 0.00 33 990.2
20260506103050 82 280 0.0 0.0 0.00 0.00 0.00 32 990.3
20260506101553 82 270 0.0 0.0 0.00 0.00 0.00 32 990.4
20260506100100 82 298 0.0 0.0 0.00 0.00 0.00 32 990.5
20260506094539 82 265 0.0 0.0 0.00 0.00 0.00 35 990.5